User: anonymous
Location: Caltech
(34.1382°N, 118.1253°W)
Time: 13:18:51
(UTC-07:00)
Language:

Cosmos 1975 - Orbit

View from above orbital plane
View from above orbital plane
View from above satellite
View from above satellite

Ground track
Ground track

The orbit data is extracted from the following two-line orbital elements,

1 19573U 88093A   14274.39083085  .00005744  00000-0  44885-3 0  3308
2 19573 082.5226 221.4949 0017463 067.1259 293.1807 15.00806405411122
Epoch (UTC): 01 October 2014 09:22:47
Eccentricity: 0.0017463
inclination: 82.5226°
perigee height: 552 km
apogee height: 576 km
right ascension of ascending node: 221.4949°
argument of perigee: 67.1259°
revolutions per day: 15.00806405
mean anomaly at epoch: 293.1807°
orbit number at epoch: 41112

The dashed part of the orbit path shows where the satellite is in the earth's shadow,  

DLR